GFSSGP_sfc_rhum_336.txt.gz
RH
64 52 47 53 33 25 33 35 27 34 34 31 31 33 41 45 38 50 34 45 54 57 49 54 79 76 73 76 76 74 72 70 71 70 69 68 68 70 70 70 69 68 68 68 69 69 69 69 67
47 51 51 29 26 31 35 29 34 31 31 33 39 41 39 46 34 36 39 50 49 42 37 44 82 78 75 77 78 75 72 70 70 68 67 68 68 69 68 68 69 69 69 69 68 71 68 68 68
51 54 36 26 27 30 35 29 33 33 30 32 41 41 43 48 36 36 34 38 37 42 44 61 80 79 74 74 74 74 72 71 69 68 68 68 68 67 67 67 66 68 68 68 68 72 71 69 69
44 45 24 24 32 27 30 33 32 34 33 33 32 41 45 39 40 34 38 37 38 40 37 68 77 74 74 74 72 72 71 70 70 70 69 68 68 67 67 66 67 68 68 68 68 70 69 68 69
38 27 26 30 31 28 26 27 27 31 34 34 34 38 45 47 40 38 38 34 34 33 38 49 78 76 74 76 75 74 73 72 72 72 70 70 70 68 68 68 68 67 67 68 66 67 67 67 69
26 20 25 33 34 30 28 27 26 30 35 35 37 35 39 41 42 38 35 35 34 38 36 50 74 77 74 71 71 71 73 74 72 71 70 70 72 70 69 68 70 69 69 68 66 67 68 70 69
24 20 25 28 34 33 30 24 24 28 32 32 29 38 40 38 38 35 32 30 34 35 37 45 49 62 71 72 73 76 71 68 73 72 70 69 68 67 70 70 69 71 70 69 66 67 67 68 69
20 18 24 25 27 37 28 25 22 24 33 28 25 43 44 35 35 30 31 30 30 33 39 47 47 44 45 47 74 72 72 75 71 70 71 72 72 72 73 71 70 67 72 68 68 71 68 66 66
23 20 28 28 25 33 28 32 28 22 25 27 30 25 29 34 31 30 32 33 38 37 35 34 37 40 44 40 54 72 73 71 72 69 70 68 43 45 52 63 72 82 73 71 71 69 70 65 64
18 24 33 28 25 27 27 29 25 26 33 37 32 28 31 34 33 32 32 33 34 41 39 34 35 37 40 37 48 49 43 43 44 49 61 64 52 52 51 59 70 70 72 70 71 71 71 66 51
22 29 29 28 24 23 26 28 24 28 31 29 35 34 34 33 32 28 28 28 30 36 38 39 44 48 39 41 42 40 38 43 51 59 62 62 58 50 52 55 70 83 74 74 56 58 47 46 42
27 26 25 27 28 24 28 24 27 27 27 22 27 28 30 30 27 24 24 26 30 36 37 36 42 54 46 40 43 39 39 41 43 46 65 69 71 60 69 81 66 60 77 57 52 49 51 54 48
23 24 26 25 27 25 27 29 28 29 25 22 26 29 29 29 28 25 24 24 30 35 35 35 41 52 52 58 43 41 42 41 40 45 49 50 71 66 67 57 52 57 51 48 54 61 67 65 60
22 21 25 25 26 27 28 30 29 31 26 26 27 28 28 29 28 29 28 28 30 31 30 30 38 48 48 51 57 48 47 44 44 44 46 59 54 62 72 64 50 45 46 47 48 60 56 53 50
21 21 22 24 26 28 26 37 33 30 30 28 27 28 28 29 29 31 30 31 32 32 29 32 38 39 51 52 54 48 44 39 44 45 55 64 65 61 65 53 46 43 51 55 52 57 50 49 45
18 18 24 22 23 28 24 38 33 30 32 30 28 30 29 30 28 31 30 30 32 32 35 38 33 34 44 48 51 44 44 43 43 43 45 59 64 67 66 60 47 48 49 43 46 44 47 62 58
16 20 20 19 21 23 22 31 33 29 28 30 29 30 31 31 31 31 30 31 30 35 37 38 38 34 40 51 50 50 51 48 41 41 43 53 61 56 67 47 48 61 44 42 41 43 48 52 66
18 16 19 18 20 22 22 24 31 31 28 29 28 30 32 31 31 31 32 31 30 33 38 41 36 42 48 46 55 46 45 44 41 42 45 57 52 56 56 47 54 56 44 42 42 51 43 50 74
15 15 16 16 18 22 22 21 26 31 30 30 27 28 27 29 26 27 30 31 32 34 39 42 44 49 49 48 48 47 46 44 43 43 57 58 59 58 59 45 54 52 50 51 54 50 58 50 63
14 14 14 16 20 22 20 20 20 27 30 29 29 28 28 26 25 27 29 30 32 36 39 44 47 53 54 43 46 44 43 41 41 44 54 53 57 59 55 58 54 56 45 57 55 55 44 46 47
13 13 14 15 15 17 16 18 22 23 27 27 26 26 25 26 24 23 26 29 30 35 40 44 50 52 55 51 48 53 51 54 48 47 48 49 57 55 59 58 57 62 56 45 55 54 56 46 47
14 11 13 14 14 13 12 17 22 24 29 29 26 25 24 25 24 21 20 23 25 30 33 40 48 53 53 57 51 63 48 45 38 41 39 45 57 57 57 64 67 69 46 56 49 44 47 58 46
13 11 12 12 12 11 14 15 20 21 24 26 26 23 21 22 22 22 20 20 22 25 28 34 44 54 54 58 60 54 60 42 40 41 54 62 60 59 58 62 63 61 49 55 55 56 62 44 41
10 12 13 12 11 13 12 14 13 15 17 18 18 23 21 20 20 21 20 20 22 25 29 32 45 58 59 60 64 64 59 56 47 49 45 42 44 50 62 60 64 63 56 58 52 57 60 58 51
10 8 12 14 15 12 11 14 12 11 12 15 15 20 20 19 19 20 21 22 25 28 31 35 47 62 62 60 60 62 64 63 62 59 45 46 41 42 54 65 64 58 65 60 58 65 58 56 52
7 6 8 20 14 10 14 15 12 11 12 16 17 16 19 19 18 20 21 22 25 29 33 38 47 59 58 58 60 64 63 49 48 50 43 38 38 38 52 61 59 63 65 61 62 52 48 53 47
7 9 5 7 8 10 9 11 8 10 14 17 18 18 20 20 19 19 19 20 23 28 34 38 45 56 55 50 60 62 63 61 48 53 52 42 48 42 57 60 64 65 66 65 65 50 58 54 53
6 5 8 8 16 18 10 11 10 12 9 15 18 18 18 19 20 18 20 20 22 23 27 34 41 51 52 47 52 53 57 62 60 55 61 56 49 54 58 63 62 65 67 68 71 56 61 62 49
6 7 7 6 8 12 12 10 6 8 9 15 20 22 21 17 18 18 20 23 23 25 26 32 40 52 73 73 67 68 52 52 57 53 56 59 58 60 65 68 67 66 68 69 72 67 60 68 62
4 5 5 9 12 8 8 8 5 11 17 20 21 23 25 25 20 19 20 24 25 30 31 39 48 52 73 56 62 59 58 60 46 52 52 51 59 60 65 66 70 69 69 70 72 70 59 68 64

GFSSGP_sfc_rhum_339.txt.gz
RH
64 48 38 44 58 27 34 30 22 27 30 25 26 33 36 33 33 58 34 48 55 54 50 56 78 76 74 76 75 75 71 71 70 72 70 68 69 69 69 69 68 68 67 68 68 69 68 70 66
34 37 41 39 40 41 35 27 28 28 29 28 29 26 29 35 30 38 44 51 52 46 46 45 80 75 70 74 73 74 68 69 69 69 68 67 67 68 68 68 68 67 68 66 66 67 68 72 72
43 41 33 20 23 30 32 26 28 27 24 25 32 32 28 34 29 34 36 44 48 45 42 57 79 77 72 73 72 72 69 68 68 67 66 67 66 65 66 65 64 66 67 65 67 69 68 72 71
32 37 25 20 25 22 24 25 25 26 25 22 27 42 30 26 27 30 34 34 36 30 36 67 75 72 72 72 71 70 71 69 67 68 68 67 65 64 65 64 63 64 66 66 66 67 69 74 72
32 32 20 24 25 21 20 21 22 25 26 24 21 37 42 38 28 27 27 26 31 30 42 54 77 75 73 71 71 70 69 69 69 69 67 65 65 67 66 66 66 65 64 65 64 65 64 66 72
30 18 22 26 25 21 20 19 20 24 26 26 26 32 36 33 34 29 24 24 23 29 33 45 73 74 74 74 74 74 72 71 71 70 69 68 71 68 68 66 68 67 65 65 61 66 64 68 71
20 16 21 23 26 25 20 16 19 22 24 24 21 35 33 32 31 28 26 24 24 27 32 41 47 67 72 72 74 72 73 71 72 69 68 67 67 65 70 73 70 68 68 65 65 65 70 69 69
16 14 18 20 26 30 19 18 17 20 24 18 20 34 36 30 28 25 26 26 27 33 35 57 50 53 60 58 74 72 70 69 72 71 71 72 72 70 70 69 76 72 66 66 66 67 67 69 68
15 18 22 20 24 28 22 20 17 18 22 20 21 23 24 26 24 24 25 27 30 31 31 31 36 35 37 39 57 69 73 73 72 68 72 66 62 52 60 74 74 67 70 69 67 68 66 67 66
15 20 23 18 17 21 21 20 19 20 23 24 20 21 23 24 24 25 26 29 30 34 28 26 26 30 34 30 49 52 44 46 52 61 54 57 47 49 60 62 74 71 69 69 69 69 69 64 46
14 22 19 20 19 17 20 21 19 23 23 22 24 26 25 25 25 24 24 25 27 33 33 31 33 35 31 34 37 35 49 63 44 54 52 58 61 77 87 86 79 82 72 58 56 58 54 47 42
19 17 19 21 21 20 22 19 20 20 19 18 20 23 24 24 22 21 22 22 25 30 31 31 37 50 41 36 37 34 44 58 60 46 52 58 79 74 61 56 67 78 61 65 80 70 61 48 48
18 18 18 20 20 20 21 22 20 22 16 18 20 22 23 22 21 18 18 20 24 29 31 31 36 48 48 50 40 42 41 41 48 48 60 83 52 60 56 63 80 51 60 68 60 54 48 60 69
16 16 19 19 21 22 22 22 21 22 17 20 20 21 21 20 19 19 19 20 24 27 28 28 34 44 43 48 50 44 44 48 41 45 64 51 75 57 53 55 50 64 55 41 62 62 67 66 53
15 17 18 19 20 23 20 29 25 22 19 21 21 22 22 22 21 22 21 22 24 24 25 29 33 36 46 47 50 42 38 34 41 54 47 51 55 58 62 50 69 64 48 53 49 51 48 73 66
15 14 21 17 18 20 21 33 25 22 21 22 21 24 24 24 21 22 22 22 26 25 29 31 27 32 42 44 47 41 46 41 41 65 65 58 68 64 67 59 71 57 41 36 36 43 57 44 72
14 20 17 18 16 18 20 28 25 22 21 23 22 23 23 24 24 25 24 24 27 28 31 33 32 29 40 49 45 43 44 41 38 37 67 62 56 59 56 76 65 55 36 35 42 64 64 71 83
14 14 15 16 16 17 17 23 25 24 22 23 22 24 25 24 24 25 25 24 25 29 33 35 33 36 42 44 50 41 38 37 34 41 48 52 55 53 56 43 52 52 36 40 42 56 40 70 72
12 12 14 13 13 17 17 19 23 24 23 24 21 24 23 23 22 23 25 25 26 30 35 38 37 44 43 42 44 42 38 37 35 43 48 51 50 53 55 70 49 46 63 60 49 48 55 64 70
12 12 12 13 13 14 15 15 20 23 24 23 22 22 23 23 22 23 25 25 26 31 35 41 43 47 48 40 41 39 38 43 54 45 46 50 52 55 50 53 54 52 52 55 53 53 47 61 57
11 11 11 13 12 10 12 14 20 22 23 22 20 20 20 22 22 21 23 25 25 30 34 40 47 50 52 49 42 47 47 49 40 39 41 46 51 52 55 54 56 56 55 52 55 50 60 57 39
11 8 9 11 12 13 10 44 49 20 26 25 22 20 20 21 20 19 19 22 23 27 30 36 44 48 50 54 50 59 48 42 34 35 42 41 51 53 52 55 56 59 45 58 46 40 48 63 51
11 9 10 10 10 9 9 11 24 17 23 24 22 20 19 20 19 19 18 20 20 23 26 33 42 51 54 56 63 50 58 39 36 35 49 54 57 55 51 56 57 62 48 52 54 50 59 44 47
8 9 10 9 9 12 8 10 31 42 18 18 18 18 18 17 18 18 17 17 18 19 23 28 42 59 59 57 59 62 58 55 42 42 41 40 61 57 58 53 63 63 53 54 51 54 56 59 57
7 9 13 14 12 11 6 10 26 54 19 10 11 16 16 16 16 18 19 18 20 20 23 27 44 58 60 58 56 60 62 60 58 56 42 46 57 56 70 61 62 68 63 57 55 62 58 57 52
6 6 9 16 10 8 8 13 9 15 8 10 10 11 15 16 14 16 19 19 20 21 24 29 41 55 56 56 59 65 63 49 47 48 41 35 32 59 57 57 55 56 60 60 61 51 48 53 51
4 6 4 4 4 8 9 10 7 7 8 10 12 12 14 15 14 15 16 16 19 22 26 31 39 52 54 50 62 64 64 63 48 50 48 39 44 36 51 54 58 60 62 63 64 53 55 52 56
4 4 5 5 13 14 8 9 9 11 9 10 12 13 13 13 14 14 14 16 18 19 23 29 36 49 50 44 50 52 56 62 59 53 57 52 46 47 52 58 57 60 64 65 68 56 60 62 48
5 5 5 4 5 9 10 11 6 7 7 8 12 13 12 12 14 13 14 16 17 20 24 28 34 43 47 44 50 55 52 50 56 51 57 58 56 58 59 65 64 62 63 65 69 69 58 68 62
3 4 4 7 10 7 7 7 4 6 8 10 13 14 14 13 12 14 14 17 18 22 26 30 36 39 47 43 55 53 51 58 51 52 48 50 59 59 65 66 68 68 66 68 73 69 58 66 66

GFSSGP_sfc_rhum_342.txt.gz
RH
65 53 50 44 73 46 63 34 34 43 42 31 27 42 43 37 39 66 56 57 53 59 57 63 78 74 74 75 74 73 72 72 74 72 72 70 70 71 71 70 69 71 69 68 69 69 69 64 65
47 41 44 70 51 68 77 29 30 30 28 26 24 30 39 47 37 48 55 53 52 48 52 53 79 76 73 74 75 72 70 70 70 70 71 68 67 67 68 68 67 68 68 67 67 71 66 65 65
60 41 56 84 37 38 39 26 33 30 24 29 28 27 33 46 41 42 43 51 50 50 51 64 78 76 72 73 72 71 70 69 69 68 68 67 64 64 65 65 66 67 65 68 68 70 66 66 65
37 38 42 22 28 24 28 28 25 30 25 24 28 39 30 31 36 39 43 49 51 52 57 74 77 72 71 71 74 71 69 68 68 67 68 66 64 63 63 62 62 63 64 65 68 67 64 68 65
31 36 23 27 24 22 22 21 27 26 28 26 30 42 38 32 30 36 40 42 42 45 55 64 78 77 74 73 72 71 71 69 68 68 67 64 64 65 65 65 65 64 63 63 63 66 66 64 64
40 28 22 29 24 20 19 18 20 24 23 26 34 39 38 28 31 32 30 37 35 42 47 58 75 77 74 71 71 72 71 70 70 69 68 68 68 67 66 66 67 65 63 63 62 64 67 65 64
28 46 25 21 24 22 19 16 20 22 24 27 26 44 36 31 26 24 36 28 31 35 44 56 58 70 74 74 73 74 74 72 71 70 69 69 70 70 67 70 69 66 67 64 69 67 68 70 70
25 21 20 23 25 24 17 17 17 20 23 20 24 41 42 33 27 24 24 27 31 37 41 51 62 59 64 67 74 72 70 71 71 71 71 70 69 68 70 74 72 71 64 66 65 68 70 70 69
35 17 22 24 26 24 16 19 18 17 20 20 22 28 29 29 26 26 29 31 37 40 45 42 47 54 60 64 69 73 72 72 73 71 72 72 71 65 67 77 68 63 67 66 67 68 68 70 67
23 21 21 17 19 21 18 18 20 21 21 21 23 25 26 26 27 28 30 33 35 40 42 40 44 45 54 45 70 68 60 63 68 68 74 76 80 79 75 74 74 69 66 70 70 68 67 67 59
15 20 17 18 16 16 19 20 18 24 24 20 27 28 27 27 26 25 26 29 31 37 44 43 39 42 38 50 58 56 58 59 70 77 74 73 96 98 95 95 83 86 73 71 67 68 66 62 66
17 15 16 18 17 19 19 16 18 20 20 17 22 24 25 25 24 23 24 26 32 35 36 36 49 62 57 50 53 60 60 60 67 68 68 86 95 93 90 92 84 87 83 78 76 75 73 69 64
17 15 16 17 17 18 17 18 20 18 17 18 21 23 24 23 22 21 21 23 30 34 33 39 50 63 62 62 61 56 61 65 62 70 64 82 86 84 79 89 93 90 90 90 91 83 72 74 70
16 14 17 16 17 19 18 19 21 18 18 20 22 23 22 21 20 21 21 23 28 32 32 34 41 55 53 65 64 64 63 63 65 64 67 72 84 81 76 85 85 88 80 80 83 78 80 82 69
14 18 17 18 18 22 24 26 25 18 19 21 22 22 21 20 19 20 20 23 25 27 31 36 40 44 57 60 62 64 57 52 59 68 64 66 75 76 78 86 80 92 76 73 76 74 86 89 83
16 24 36 18 17 27 55 41 23 18 20 22 21 22 22 21 19 20 20 21 25 26 36 42 31 41 50 58 62 59 89 66 64 64 67 71 71 73 81 86 79 76 69 70 68 72 75 85 93
42 48 21 18 14 19 23 29 24 19 19 22 22 23 24 24 22 22 21 22 25 30 37 38 37 39 48 64 59 60 74 66 62 64 89 94 82 76 85 87 87 72 74 66 64 67 76 88 92
69 61 18 20 16 16 18 26 25 22 19 22 22 24 25 25 23 24 23 23 26 31 39 42 38 56 61 62 66 67 62 55 58 77 92 90 84 78 80 89 75 75 74 71 69 74 78 88 96
34 46 18 13 12 15 17 24 25 24 21 22 22 24 23 24 23 24 25 25 28 34 41 44 48 64 57 60 59 64 59 58 59 79 71 72 73 69 73 96 70 70 76 73 68 69 78 80 84
26 16 18 13 12 14 25 22 23 24 24 22 21 23 24 24 23 27 26 25 29 37 43 50 53 64 58 55 59 59 67 72 83 92 76 63 70 68 71 79 73 84 92 75 68 72 82 77 76
10 11 19 21 11 10 11 21 28 66 22 22 20 19 21 23 24 24 26 26 27 38 45 51 59 65 63 64 62 64 71 68 76 77 66 63 66 65 81 71 72 73 76 81 73 67 75 85 86
11 8 9 10 12 14 11 25 36 37 26 24 21 20 19 22 21 21 23 24 24 34 40 50 57 65 63 67 66 73 72 71 63 61 70 64 67 66 68 69 69 72 85 80 71 56 75 81 80
10 8 10 10 11 10 10 15 30 26 34 31 22 20 19 19 20 20 20 24 23 28 34 45 57 63 66 68 74 68 73 67 59 62 73 78 77 67 64 75 71 72 77 78 70 71 73 78 79
6 8 9 10 10 13 9 12 33 44 53 52 38 26 19 18 18 18 18 21 23 27 32 39 58 68 68 70 71 78 78 72 73 65 67 66 85 82 74 74 77 77 84 74 70 70 72 79 82
6 8 13 15 14 13 7 23 33 43 40 38 35 24 18 17 18 18 19 21 25 28 30 39 60 70 70 69 69 73 75 76 74 70 64 65 68 71 84 84 79 79 78 75 75 78 80 77 78
5 7 11 21 12 9 11 49 31 30 30 32 28 18 17 17 17 18 20 21 25 26 31 38 60 69 67 67 71 76 75 65 64 69 62 60 66 71 81 79 75 78 78 75 77 79 74 76 77
4 7 5 6 6 6 15 16 16 19 15 12 9 13 16 17 17 16 17 17 20 25 33 40 57 66 66 63 72 74 75 73 64 71 69 59 68 68 94 76 74 76 78 78 81 78 81 78 76
3 3 5 5 14 15 17 19 22 28 15 10 11 12 13 14 15 15 17 18 19 20 25 32 52 61 62 58 64 65 70 75 76 72 72 70 66 63 76 72 72 76 79 80 83 80 77 80 78
4 4 4 5 5 10 10 13 10 13 9 9 12 12 12 12 13 14 16 18 20 22 24 30 42 51 59 59 62 67 65 67 70 66 72 72 71 73 74 78 79 81 82 81 84 84 81 82 82
3 4 4 7 10 6 8 10 6 8 6 8 12 11 12 12 12 14 14 17 21 26 31 39 42 42 56 57 66 62 65 68 62 67 68 66 74 76 78 80 81 81 80 84 83 82 74 82 82

GFSSGP_sfc_rhum_345.txt.gz
RH
70 65 68 78 87 85 67 53 42 46 49 38 36 39 43 43 45 73 69 65 65 68 73 70 79 76 74 77 76 73 73 71 73 73 73 72 73 72 71 70 70 70 70 70 70 67 66 66 65
57 56 72 78 59 80 72 47 50 40 35 37 38 42 47 54 51 67 70 62 61 63 68 73 81 78 73 74 76 74 69 69 71 71 70 69 70 70 70 68 69 68 68 68 70 66 65 65 65
64 56 78 85 54 55 56 37 36 33 30 36 37 36 46 58 52 58 54 57 55 60 64 71 80 78 72 72 71 71 70 69 70 69 68 67 68 68 67 68 69 68 69 66 64 64 65 65 66
63 72 78 54 43 38 42 35 32 31 31 32 36 50 45 42 46 48 51 54 64 65 69 76 77 72 72 71 70 70 69 69 68 68 67 66 66 66 65 64 66 66 66 66 65 63 65 65 66
68 58 58 39 36 30 39 29 29 32 36 39 42 55 54 46 48 51 55 52 64 71 72 72 79 76 73 75 74 71 69 69 69 70 68 66 64 65 65 64 64 65 64 65 67 64 63 65 63
69 60 40 41 30 27 35 32 29 31 36 39 48 50 54 46 51 52 52 54 62 69 71 71 78 79 76 72 72 72 71 70 70 69 68 68 68 69 67 67 66 65 64 65 65 66 65 65 64
69 54 32 32 30 26 29 25 29 33 40 40 38 52 51 49 46 48 50 47 52 59 68 76 79 75 74 74 74 74 73 72 72 71 70 71 70 70 68 70 69 68 68 66 67 66 68 66 64
40 39 28 28 30 32 21 21 26 31 34 32 34 52 53 43 36 36 40 45 52 59 66 74 79 82 84 82 75 75 74 74 73 72 71 71 70 69 69 75 73 68 68 67 69 68 69 70 67
39 50 37 29 29 28 23 25 22 23 34 34 32 38 38 35 35 37 41 46 51 54 60 65 70 75 75 79 76 76 72 73 72 75 73 79 82 77 74 79 69 70 73 69 68 70 71 69 69
48 38 29 24 21 23 23 24 23 26 31 35 38 35 34 34 35 39 46 50 52 54 54 55 62 69 71 61 79 87 78 83 85 84 86 94 94 91 83 78 72 66 68 70 70 70 70 70 76
21 32 22 20 20 18 22 24 20 28 36 35 41 40 36 35 37 38 41 45 47 56 55 53 54 61 66 64 80 82 76 82 85 88 89 96 93 96 97 97 88 90 73 83 80 75 77 75 81
22 18 20 22 22 22 24 21 25 25 28 31 33 34 35 35 35 36 38 41 46 49 44 49 54 55 61 65 71 68 68 74 77 84 89 97 98 97 98 98 93 93 94 88 89 92 83 78 74
27 19 20 19 20 19 19 22 23 25 28 29 31 32 34 33 32 30 32 36 42 46 49 54 59 62 64 62 67 64 70 71 70 90 95 95 97 97 96 96 96 94 94 96 95 95 92 88 82
32 19 20 20 25 19 23 23 24 24 26 29 30 33 31 30 29 29 30 39 40 39 49 57 60 66 62 65 69 71 62 66 72 82 87 87 90 93 93 94 93 94 92 88 93 92 91 92 93
41 55 32 21 26 29 25 30 28 25 25 28 29 29 28 29 28 31 34 37 38 40 47 55 60 62 69 64 69 68 69 65 72 73 76 86 89 91 92 92 95 91 90 86 95 88 89 92 90
60 74 73 31 28 36 40 50 27 25 26 31 29 28 28 29 28 28 30 33 36 40 49 52 45 60 66 67 69 78 80 80 78 97 97 92 86 78 83 92 88 88 86 81 88 93 98 96 97
59 73 62 44 28 34 36 45 27 24 26 30 29 28 29 31 29 29 28 31 35 46 47 51 50 56 63 73 74 82 82 85 90 96 96 91 83 87 93 97 93 91 88 74 76 82 95 97 96
56 56 48 47 32 33 51 40 27 25 25 28 29 33 34 34 32 30 29 30 38 46 48 49 51 56 68 72 76 76 83 89 81 90 94 91 90 91 87 95 91 90 75 72 79 80 91 97 98
28 42 49 42 25 37 46 49 29 26 26 28 32 37 35 33 32 31 29 32 38 47 52 55 63 77 68 81 77 76 80 93 96 95 88 94 94 87 93 89 94 84 87 85 76 86 89 94 91
35 44 55 31 24 32 36 39 33 28 27 28 29 32 33 34 34 33 33 33 39 45 50 59 65 77 71 76 74 74 83 86 94 95 89 92 90 90 89 92 93 88 81 86 76 81 92 93 91
34 38 40 29 19 27 33 51 69 50 39 29 28 28 28 32 35 36 38 37 42 47 50 58 71 68 69 66 74 78 78 80 79 65 74 87 75 87 76 76 94 91 91 90 76 75 80 95 94
29 26 28 27 24 24 27 77 73 52 37 40 30 32 29 29 31 32 40 36 42 45 46 50 72 72 65 72 76 69 74 78 77 71 70 76 75 76 77 84 74 81 90 85 79 73 81 92 94
12 20 27 14 19 22 20 51 47 56 54 42 32 28 30 28 27 31 31 35 39 43 47 52 68 69 68 77 77 79 78 76 71 82 75 78 86 79 75 78 73 81 88 87 83 75 82 83 89
7 10 13 17 20 28 18 38 50 45 46 44 39 33 28 28 26 26 28 29 34 43 47 54 64 72 73 76 82 83 77 76 82 83 86 88 94 75 84 82 81 84 89 83 75 75 79 89 88
10 13 26 30 29 30 39 48 54 36 26 28 30 29 35 28 27 27 27 29 34 42 47 56 63 75 76 75 81 83 86 81 82 75 75 85 82 92 91 88 88 89 89 84 85 80 86 82 86
9 15 24 29 31 24 34 47 36 26 26 26 24 27 31 28 27 24 26 29 33 38 44 55 66 67 69 80 75 86 84 91 88 76 73 83 78 89 89 90 90 86 87 84 85 88 82 85 85
8 10 9 14 27 15 34 41 27 26 29 30 33 25 30 28 25 24 28 28 34 35 45 55 65 70 72 68 89 88 88 86 85 75 74 80 79 69 77 86 88 89 86 85 89 86 90 88 85
6 7 11 14 22 20 24 32 37 30 28 29 29 30 30 28 25 23 25 28 31 33 46 57 63 72 73 72 81 86 87 87 87 88 82 72 79 80 85 86 88 86 89 89 91 88 88 88 83
9 8 20 11 16 17 25 31 23 24 21 23 26 20 25 22 23 22 23 26 28 32 53 59 67 73 78 77 78 82 85 84 90 86 84 77 77 89 92 89 87 87 89 88 92 90 91 92 86
6 7 8 19 16 19 18 22 17 19 20 19 20 20 27 37 36 33 24 25 27 33 45 58 63 68 75 76 80 80 80 84 79 90 79 79 79 82 84 88 88 89 92 92 93 94 86 93 93